|
NORAD ID: 8290 Int'l Code: 1975-086F
Perigee: 1,424.7 km
Apogee: 1,491.6 km
Inclination: 74.0 °
Period: 114.9 minutes
Semi major axis: 7829 km
Launch date: September 17, 1975
Source: Commonwealth of Independent States (former USSR) (CIS)
Two Line Element Set (TLE):
1 08290U 75086F 13144.37025328 .00000005 00000-0 13428-3 0 6890
2 08290 074.0116 050.9479 0042759 219.6970 261.3513 12.53226049724205
Source:
NASA's NSSDC Master Catalog entry for COSMOS 766
|